Location: Limerick
(52.6800°N, 8.6400°W)
Time: 14:36:03
(UTC+00:00)

Amateur Radio Satellites - All Passes

Search period start: 23 January 2017 14:06
Search period end: 24 January 2017 14:06
Location: Limerick, 52.6800°N, 8.6400°W

Satellite Date Start Highest point End Downlink Frequencies (MHz)
Time Altitude Azimuth
BRITE-PL 23 Jan 14:09:51 14:10:24 10° 45° (NE) 14:10:57 437.365/2234.400
AO-85 23 Jan 14:15:06 14:19:37 61° 129° (SE) 14:23:49 145.980
AISAT 23 Jan 14:17:46 14:21:15 23° 300° (WNW) 14:24:43 437.250
O/OREOS (USA 219) 23 Jan 14:20:12 14:24:06 27° 46° (NE) 14:27:58 437.305
Oscar 19 23 Jan 14:26:31 14:30:23 21° 271° (W) 14:34:15 437.125/150
TISAT 1 23 Jan 14:36:13 14:40:25 87° 285° (WNW) 14:44:36 437.305
ITUPSAT 1 23 Jan 14:38:26 14:42:25 25° 93° (E) 14:46:23 437.325
VELOX 1 23 Jan 14:51:49 14:54:08 14° 307° (NW) 14:56:27 145.980
SPROUT 23 Jan 14:56:44 14:59:01 14° 305° (NW) 15:01:18 437.525
Cosmos 2504 23 Jan 15:01:48 15:10:12 67° 95° (E) 15:18:03 435.465 / 435.565
AO-7 23 Jan 15:02:26 15:10:50 82° 250° (WSW) 15:19:17 29.400- 29.500
UKube-1 23 Jan 15:05:13 15:08:32 22° 301° (WNW) 15:11:51 .
Gurwin Techsat 1B 23 Jan 15:06:32 15:10:04 18° 273° (W) 15:13:39 435.225
BEESAT 23 Jan 15:10:33 15:15:12 46° 99° (E) 15:19:48 436.000
HORYU 2 23 Jan 15:11:17 15:12:47 12° 50° (NE) 15:14:17 437.375
DANDE 23 Jan 15:12:14 15:19:57 81° 260° (W) 15:28:21 436.750
SWISSCUBE 23 Jan 15:12:30 15:17:14 53° 101° (E) 15:21:56 437.505
DX 1 23 Jan 15:13:01 15:15:40 16° 305° (NW) 15:18:19 434.975-435.025
ITAMSAT 1 23 Jan 15:14:33 15:19:35 51° 260° (W) 15:24:39 435.822/435.867
BEESAT 3 23 Jan 15:15:47 15:17:19 12° 111° (ESE) 15:18:50 437.485
SO-50 23 Jan 15:17:40 15:22:13 73° 43° (NE) 15:26:43 436.795
AIST 1 23 Jan 15:23:47 15:27:27 26° 293° (WNW) 15:31:05
GOMX 1 23 Jan 15:32:10 15:35:27 17° 56° (NE) 15:38:39 467.674
CUSAT 1 23 Jan 15:34:09 15:40:49 31° 277° (W) 15:47:09 437.405
Cosmos 2491 23 Jan 15:37:45 15:43:50 21° 287° (WNW) 15:49:54 435.465 / 435.565
BRITE-PL 23 Jan 15:42:21 15:47:37 41° 65° (ENE) 15:52:42 437.365/2234.400
YUBILEINY 23 Jan 15:48:11 15:56:45 52° 291° (WNW) 16:05:22 435.215
NOAA 15 23 Jan 15:52:28 15:55:31 16° 49° (NE) 15:58:36 137.62
Cubesat XI-IV 23 Jan 15:55:08 15:58:11 16° 49° (NE) 16:01:13 437.490
AO-85 23 Jan 15:56:19 16:00:17 32° 328° (NNW) 16:04:03 145.980
DOVE 4 23 Jan 15:56:38 15:58:13 12° 52° (NE) 15:59:47 437.250
O/OREOS (USA 219) 23 Jan 15:59:23 16:03:47 54° 247° (WSW) 16:08:12 437.305
BEESAT 2 23 Jan 16:06:22 16:08:59 17° 115° (ESE) 16:11:38 435.950
M-CUBED/EXP-1 PRIME 23 Jan 16:06:59 16:08:06 11° 94° (E) 16:09:11 437.505
TISAT 1 23 Jan 16:13:14 16:15:27 14° 305° (NW) 16:17:39 437.305
MOZHAYETS 4 23 Jan 16:14:49 16:19:28 65° 102° (ESE) 16:24:06
ITUPSAT 1 23 Jan 16:15:51 16:20:33 54° 292° (WNW) 16:25:14 437.325
NOAA 18 23 Jan 16:25:18 16:28:47 18° 49° (NE) 16:32:16 137.9125
KKS-1 23 Jan 16:31:12 16:35:13 32° 96° (E) 16:39:12 437.445
AUBIESAT-1 23 Jan 16:39:36 16:42:13 21° 100° (E) 16:44:46 437.475
HORYU 2 23 Jan 16:44:08 16:48:29 62° 70° (ENE) 16:52:52 437.375
CUTE-I 23 Jan 16:48:30 16:53:14 34° 61° (ENE) 16:57:59 437.470
BEESAT 23 Jan 16:48:39 16:52:49 30° 299° (WNW) 16:56:58 436.000
BEESAT 3 23 Jan 16:50:19 16:54:14 78° 131° (SE) 16:58:13 437.485
SWISSCUBE 23 Jan 16:50:45 16:54:47 27° 300° (WNW) 16:58:47 437.505
DANDE 23 Jan 16:56:00 17:01:50 24° 279° (W) 17:08:00 436.750
Cosmos 2504 23 Jan 16:56:32 17:04:09 36° 297° (WNW) 17:11:21 435.465 / 435.565
AO-7 23 Jan 16:58:35 17:04:53 23° 272° (W) 17:11:14 29.400- 29.500
SO-50 23 Jan 16:58:48 17:02:16 22° 244° (WSW) 17:05:42 436.795
CINEMA 3 23 Jan 17:02:00 17:02:59 11° 52° (NE) 17:03:58 145.822/145.860
HO-68 23 Jan 17:04:53 17:10:15 23° 45° (NE) 17:15:38 435.675
GOMX 1 23 Jan 17:07:39 17:12:56 84° 74° (ENE) 17:17:56 467.674
CUBESAT XI-V 23 Jan 17:09:23 17:13:52 41° 97° (E) 17:18:16 437.345
STARS 23 Jan 17:15:08 17:19:17 41° 98° (E) 17:23:26 437.465
BRITE-PL 23 Jan 17:20:42 17:26:04 42° 264° (W) 17:31:17 437.365/2234.400
LilacSat-2 23 Jan 17:22:25 17:26:06 51° 71° (ENE) 17:29:50 437.200
CUTE 1.7 + AOD 2 23 Jan 17:25:17 17:26:27 11° 52° (NE) 17:27:36 437.475
NOAA 15 23 Jan 17:29:09 17:34:25 68° 70° (ENE) 17:39:43 137.62
DOVE 4 23 Jan 17:30:24 17:35:09 61° 71° (ENE) 17:39:38 437.250
Cubesat XI-IV 23 Jan 17:32:06 17:37:22 68° 69° (ENE) 17:42:40 437.490
AO-85 23 Jan 17:39:12 17:41:52 16° 352° (N) 17:44:27 145.980
M-CUBED/EXP-1 PRIME 23 Jan 17:39:43 17:43:06 66° 294° (WNW) 17:46:21 437.505
BEESAT 2 23 Jan 17:42:18 17:46:17 78° 316° (NW) 17:50:20 435.950
YUBILEINY 23 Jan 17:50:55 17:56:12 17° 319° (NW) 18:01:30 435.215
MOZHAYETS 4 23 Jan 17:52:42 17:56:14 22° 302° (WNW) 17:59:46
CANX-2 23 Jan 17:52:52 17:56:00 20° 59° (ENE) 17:59:09 2200.000
ITUPSAT 1 23 Jan 17:55:50 17:57:24 11° 312° (NW) 17:58:57 437.325
SEEDS 23 Jan 17:57:47 18:00:10 15° 56° (NE) 18:02:33 437.485
COMPASS 1 23 Jan 17:58:14 17:59:18 11° 52° (NE) 18:00:21 437.405
NOAA 18 23 Jan 18:03:09 18:08:38 74° 70° (ENE) 18:14:07 137.9125
AAUSAT CUBESAT 2 23 Jan 18:06:36 18:07:09 10° 51° (NE) 18:07:42 437.432
KKS-1 23 Jan 18:07:45 18:11:50 36° 295° (WNW) 18:15:53 437.445
AUBIESAT-1 23 Jan 18:13:41 18:16:49 35° 299° (WNW) 18:19:51 437.475
HORYU 2 23 Jan 18:22:15 18:25:27 19° 269° (W) 18:28:39 437.375
CUTE-I 23 Jan 18:28:03 18:33:10 48° 261° (W) 18:38:19 437.470
BEESAT 3 23 Jan 18:28:56 18:32:16 25° 332° (NNW) 18:35:39 437.485
AIST 2 23 Jan 18:34:15 18:36:27 14° 112° (ESE) 18:38:40 435.215
CINEMA 3 23 Jan 18:35:07 18:39:23 64° 72° (ENE) 18:43:32 145.822/145.860
STRAND 1 23 Jan 18:38:30 18:41:11 14° 85° (E) 18:43:52 437.568
GONETS M04 23 Jan 18:41:13 18:48:08 28° 77° (ENE) 18:55:06
CUBESAT XI-V 23 Jan 18:46:59 18:51:09 32° 297° (WNW) 18:55:17 437.345
GOMX 1 23 Jan 18:48:05 18:51:34 18° 272° (W) 18:54:57 467.674
HO-68 23 Jan 18:49:48 18:56:59 76° 68° (ENE) 19:04:11 435.675
STARS 23 Jan 18:51:45 18:55:32 29° 298° (WNW) 18:59:18 437.465
CUTE 1.7 + AOD 2 23 Jan 18:57:13 19:01:26 62° 72° (ENE) 19:05:42 437.475
LilacSat-2 23 Jan 18:58:06 19:00:42 18° 270° (W) 19:03:21 437.200
Cosmos 2504 23 Jan 18:58:38 19:00:27 11° 324° (NW) 19:02:14 435.465 / 435.565
Cosmos 2499 23 Jan 19:06:05 19:13:36 42° 88° (E) 19:20:36 435.465 / 435.565
CUBEBUG 2 23 Jan 19:07:28 19:11:16 36° 66° (ENE) 19:15:07 437.445
DOVE 4 23 Jan 19:09:31 19:13:11 21° 269° (W) 19:16:42 437.250
NOAA 15 23 Jan 19:10:32 19:14:42 23° 269° (W) 19:18:53 137.62
Cubesat XI-IV 23 Jan 19:13:47 19:17:57 23° 270° (W) 19:22:08 437.490
FUNcube-1 23 Jan 19:15:29 19:18:29 20° 59° (ENE) 19:21:31 145.935
AO-85 23 Jan 19:20:46 19:23:43 19° 17° (NNE) 19:26:35 145.980
BEESAT 2 23 Jan 19:21:29 19:24:41 22° 336° (NNW) 19:27:54 435.950
CANX-2 23 Jan 19:27:14 19:31:28 62° 259° (W) 19:35:46 2200.000
UWE-3 23 Jan 19:28:35 19:32:26 39° 67° (ENE) 19:36:20 435.000/436.395/437.385
COMPASS 1 23 Jan 19:29:52 19:34:01 62° 71° (ENE) 19:38:13 437.405
SEEDS 23 Jan 19:31:00 19:35:15 90° 228° (SW) 19:39:33 437.485
AAUSAT CUBESAT 2 23 Jan 19:37:38 19:41:45 59° 72° (ENE) 19:45:55 437.432
ZACube-1 23 Jan 19:39:42 19:43:25 32° 65° (ENE) 19:47:12 437.345
NOAA 18 23 Jan 19:45:41 19:49:52 22° 270° (W) 19:54:04 137.9125
BEESAT 3 23 Jan 20:08:51 20:11:08 15° 356° (N) 20:13:26 437.485
Oscar 11 23 Jan 20:09:04 20:13:17 53° 70° (ENE) 20:17:32 145.826/435.025
AIST 2 23 Jan 20:10:07 20:14:16 84° 132° (SE) 20:18:31 435.215
CINEMA 3 23 Jan 20:14:06 20:16:57 17° 270° (W) 20:19:45 145.822/145.860
STRAND 1 23 Jan 20:16:02 20:21:13 80° 107° (ESE) 20:26:23 437.568
DELFI C3 23 Jan 20:24:58 20:28:27 29° 65° (ENE) 20:31:58 145.870
CUTE 1.7 + AOD 2 23 Jan 20:34:43 20:37:42 18° 271° (W) 20:40:41 437.475
GONETS M04 23 Jan 20:35:13 20:43:57 85° 280° (W) 20:52:50
HO-68 23 Jan 20:39:19 20:45:23 29° 269° (W) 20:51:30 435.675
CUBEBUG 2 23 Jan 20:44:24 20:48:00 28° 266° (W) 20:51:38 437.445
FUNcube-1 23 Jan 20:50:15 20:54:20 61° 258° (WSW) 20:58:32 145.935
PRISM 23 Jan 20:52:14 20:54:18 13° 88° (E) 20:56:20 437.425
HUMSAT D 23 Jan 20:55:40 20:59:26 34° 66° (ENE) 21:03:16 437.325/437.525
Cosmos 2499 23 Jan 20:58:40 21:06:38 54° 289° (WNW) 21:14:02 435.465 / 435.565
AO-85 23 Jan 21:01:01 21:04:57 54° 40° (NE) 21:08:48 145.980
BEESAT 2 23 Jan 21:01:28 21:03:48 15° 0° (N) 21:06:09 435.950
UWE-3 23 Jan 21:05:31 21:09:03 27° 267° (W) 21:12:37 435.000/436.395/437.385
COMPASS 1 23 Jan 21:07:07 21:09:59 18° 271° (W) 21:12:52 437.405
SEEDS 23 Jan 21:09:46 21:11:36 12° 275° (W) 21:13:27 437.485
BY70-1 23 Jan 21:10:33 21:11:47 12° 57° (ENE) 21:13:03 436.1900
ESTCUBE 1 23 Jan 21:10:59 21:12:56 13° 51° (NE) 21:14:51 437.505/2401.250
RS-15 23 Jan 21:12:52 21:16:35 12° 87° (E) 21:20:19 29.354- 29.394
AAUSAT CUBESAT 2 23 Jan 21:14:39 21:17:36 18° 270° (W) 21:20:35 437.432
ZACube-1 23 Jan 21:15:58 21:19:42 32° 265° (W) 21:23:32 437.345
CUBEBUG 1 23 Jan 21:43:53 21:46:15 14° 54° (NE) 21:48:36 437.445
Oscar 11 23 Jan 21:46:23 21:49:44 21° 269° (W) 21:53:06 145.826/435.025
BEESAT 3 23 Jan 21:47:13 21:50:09 19° 20° (NNE) 21:53:05 437.485
AIST 2 23 Jan 21:49:41 21:53:14 26° 333° (NNW) 21:56:50 435.215
STRAND 1 23 Jan 21:56:04 21:59:52 21° 305° (NW) 22:03:40 437.568
YUBILEINY 23 Jan 21:58:23 22:01:16 12° 30° (NNE) 22:04:08 435.215
DELFI C3 23 Jan 21:59:29 22:03:11 35° 264° (W) 22:06:55 145.870
JAS-2 23 Jan 22:04:18 22:09:23 20° 84° (E) 22:14:41 435.910
AISAT 23 Jan 22:09:06 22:11:57 17° 56° (NE) 22:14:48 437.250
UNISAT 6 23 Jan 22:18:21 22:22:26 34° 96° (E) 22:26:34 437.425
PRISM 23 Jan 22:26:01 22:30:10 80° 287° (WNW) 22:34:15 437.425
TIGRISAT 23 Jan 22:30:29 22:34:42 41° 98° (E) 22:39:00 435.000
HUMSAT D 23 Jan 22:31:25 22:35:06 30° 265° (W) 22:38:51 437.325/437.525
GONETS M04 23 Jan 22:35:11 22:42:16 27° 307° (NW) 22:49:26
BY70-1 23 Jan 22:38:17 22:41:28 78° 257° (WSW) 22:44:50 436.1900
BEESAT 2 23 Jan 22:39:42 22:42:56 22° 24° (NNE) 22:46:10 435.950
VELOX 1 23 Jan 22:41:04 22:44:51 28° 62° (ENE) 22:48:39 145.980
AO-85 23 Jan 22:41:53 22:45:05 24° 242° (WSW) 22:48:15 145.980
ISS 23 Jan 22:43:05 22:46:05 34° 155° (SSE) 22:49:05 145.825
SPROUT 23 Jan 22:43:38 22:46:56 22° 60° (ENE) 22:50:14 437.525
ESTCUBE 1 23 Jan 22:44:24 22:48:54 66° 72° (ENE) 22:53:27 437.505/2401.250
ANTELSAT 23 Jan 22:46:35 22:50:59 60° 101° (ESE) 22:55:29 437.575/2403.000
50 SAT 23 Jan 22:48:35 22:51:17 20° 62° (ENE) 22:54:01 437.505
UKube-1 23 Jan 22:54:27 22:57:14 17° 56° (NE) 23:00:02 .
Cosmos 2499 23 Jan 22:57:23 23:01:45 15° 314° (NW) 23:05:58 435.465 / 435.565
DX 1 23 Jan 23:01:38 23:05:07 24° 60° (ENE) 23:08:39 434.975-435.025
QB50P1 23 Jan 23:03:44 23:05:22 12° 86° (E) 23:06:59 145.935-145.965
POLYITAN 1 23 Jan 23:08:39 23:10:48 13° 87° (E) 23:12:55 437.675
QB50P2 23 Jan 23:09:50 23:12:14 15° 88° (E) 23:14:39 145.880/145.840
RS-15 23 Jan 23:14:24 23:25:31 48° 113° (ESE) 23:37:01 29.354- 29.394
CUBEBUG 1 23 Jan 23:17:28 23:21:52 82° 74° (ENE) 23:26:17 437.445
BEESAT 3 23 Jan 23:24:35 23:28:32 57° 41° (NE) 23:32:30 437.485
POPSAT HIP 1 23 Jan 23:29:50 23:33:01 20° 91° (E) 23:36:12 437.405
AIST 2 23 Jan 23:30:22 23:33:01 16° 357° (N) 23:35:41 435.215
DUCHIFAT 1 23 Jan 23:36:03 23:39:14 20° 91° (E) 23:42:25 145.980
NANOSAT C BR1 23 Jan 23:43:18 23:46:51 26° 94° (E) 23:50:23 145.865
AISAT 23 Jan 23:43:25 23:47:53 83° 256° (WSW) 23:52:20 437.250
AIST 1 23 Jan 23:46:31 23:49:52 22° 65° (ENE) 23:53:11
JAS-2 23 Jan 23:48:15 23:55:25 76° 104° (ESE) 00:03:12 435.910
YUBILEINY 23 Jan 23:53:45 00:01:41 35° 60° (ENE) 00:09:33 435.215
UNISAT 6 23 Jan 23:55:07 23:59:09 35° 295° (WNW) 00:03:15 437.425
BUGSAT 1 23 Jan 23:56:51 23:58:43 13° 88° (E) 00:00:36 437.445
TISAT 1 23 Jan 23:58:53 00:02:03 22° 60° (ENE) 00:05:15 437.305
PRISM 24 Jan 00:02:53 00:04:47 13° 307° (NW) 00:06:41 437.425
TIGRISAT 24 Jan 00:07:27 00:11:18 30° 297° (WNW) 00:15:13 435.000
ITUPSAT 1 24 Jan 00:16:42 00:18:22 12° 48° (NE) 00:20:02 437.325
VELOX 1 24 Jan 00:16:55 00:21:10 44° 261° (W) 00:25:26 145.980
BEESAT 2 24 Jan 00:17:15 00:21:20 77° 46° (NE) 00:25:24 435.950
PCSat 24 Jan 00:17:50 00:22:43 36° 115° (ESE) 00:27:38 145.827
SPROUT 24 Jan 00:18:24 00:22:34 54° 259° (W) 00:26:45 437.525
ISS 24 Jan 00:19:06 00:22:20 73° 175° (S) 00:25:35 145.825
50 SAT 24 Jan 00:20:51 00:24:16 42° 261° (W) 00:27:44 437.505
ESTCUBE 1 24 Jan 00:22:55 00:26:10 19° 270° (W) 00:29:26 437.505/2401.250
ANTELSAT 24 Jan 00:23:59 00:27:22 22° 300° (WNW) 00:30:49 437.575/2403.000
UKube-1 24 Jan 00:28:25 00:32:45 80° 256° (WSW) 00:37:06 .
DX 1 24 Jan 00:36:48 00:41:03 52° 259° (W) 00:45:21 434.975-435.025
QB50P1 24 Jan 00:37:33 00:41:49 87° 105° (ESE) 00:46:03 145.935-145.965
POLYITAN 1 24 Jan 00:42:56 00:47:11 83° 285° (WNW) 00:51:26 437.675
QB50P2 24 Jan 00:44:20 00:48:34 77° 287° (WNW) 00:52:49 145.880/145.840
BEESAT 24 Jan 00:46:47 00:50:07 19° 55° (NE) 00:53:28 436.000
Cosmos 2504 24 Jan 00:47:34 00:54:18 35° 62° (ENE) 01:00:45 435.465 / 435.565
SWISSCUBE 24 Jan 00:48:31 00:52:05 21° 56° (ENE) 00:55:40 437.505
Oscar 19 24 Jan 00:51:54 00:55:09 17° 87° (E) 00:58:23 437.125/150
Cosmos 2491 24 Jan 00:53:29 01:00:24 28° 78° (ENE) 01:07:19 435.465 / 435.565
CUBEBUG 1 24 Jan 00:56:20 00:58:45 14° 273° (W) 01:01:10 437.445
BEESAT 3 24 Jan 01:02:37 01:05:55 24° 242° (WSW) 01:09:10 437.485
POPSAT HIP 1 24 Jan 01:04:59 01:09:07 53° 290° (WNW) 01:13:15 437.405
AIST 2 24 Jan 01:09:35 01:12:55 22° 21° (NNE) 01:16:15 435.215
DUCHIFAT 1 24 Jan 01:11:07 01:15:13 53° 291° (WNW) 01:19:19 145.980
NANOSAT C BR1 24 Jan 01:18:45 01:22:44 42° 293° (WNW) 01:26:43 145.865
CUSAT 1 24 Jan 01:21:57 01:24:14 12° 69° (ENE) 01:26:41 437.405
AISAT 24 Jan 01:23:19 01:25:03 12° 274° (W) 01:26:49 437.250
AIST 1 24 Jan 01:23:37 01:27:46 50° 265° (W) 01:31:53
RS-15 24 Jan 01:25:23 01:37:31 76° 320° (NW) 01:50:01 29.354- 29.394
BUGSAT 1 24 Jan 01:30:35 01:34:39 82° 285° (WNW) 01:38:43 437.445
TISAT 1 24 Jan 01:33:18 01:37:24 54° 259° (W) 01:41:30 437.305
JAS-2 24 Jan 01:33:53 01:39:59 33° 303° (WNW) 01:46:34 435.910
Gurwin Techsat 1B 24 Jan 01:34:48 01:38:54 22° 90° (E) 01:42:57 435.225
MOZHAYETS 4 24 Jan 01:46:46 01:50:08 21° 58° (ENE) 01:53:33
YUBILEINY 24 Jan 01:50:33 01:59:21 73° 265° (W) 02:08:04 435.215
ITUPSAT 1 24 Jan 01:50:34 01:55:14 55° 68° (ENE) 01:59:56 437.325
ISS 24 Jan 01:55:31 01:58:43 57° 195° (SSW) 02:01:56 145.825
BEESAT 2 24 Jan 01:55:55 01:58:39 18° 245° (WSW) 02:01:24 435.950
AUBIESAT-1 24 Jan 01:57:41 01:59:47 14° 51° (NE) 02:01:48 437.475
PCSat 24 Jan 02:00:37 02:05:57 55° 316° (NW) 02:11:20 145.827
KKS-1 24 Jan 02:01:40 02:03:14 12° 50° (NE) 02:04:48 437.445
UKube-1 24 Jan 02:08:09 02:09:31 11° 274° (W) 02:10:53 .
QB50P1 24 Jan 02:14:34 02:17:00 15° 304° (NW) 02:19:27 145.935-145.965
POLYITAN 1 24 Jan 02:20:10 02:22:20 14° 306° (NW) 02:24:30 437.675
QB50P2 24 Jan 02:21:46 02:23:41 13° 306° (NW) 02:25:36 145.880/145.840
BEESAT 24 Jan 02:22:36 02:27:22 81° 255° (WSW) 02:32:11 436.000
SWISSCUBE 24 Jan 02:24:40 02:29:25 71° 256° (WSW) 02:34:14 437.505
Oscar 19 24 Jan 02:30:00 02:35:13 89° 284° (WNW) 02:40:23 437.125/150
Cosmos 2504 24 Jan 02:40:54 02:48:12 61° 267° (W) 02:55:13 435.465 / 435.565
CUBESAT XI-V 24 Jan 02:43:29 02:46:08 15° 53° (NE) 02:48:45 437.345
STARS 24 Jan 02:43:38 02:45:50 14° 53° (NE) 02:48:00 437.465
Cosmos 2491 24 Jan 02:47:31 02:56:15 85° 281° (W) 03:05:04 435.465 / 435.565
AIST 2 24 Jan 02:47:53 02:52:08 66° 43° (NE) 02:56:21 435.215
DANDE 24 Jan 02:47:58 02:50:27 14° 73° (ENE) 02:53:14 436.750
M-CUBED/EXP-1 PRIME 24 Jan 02:56:20 03:00:22 51° 64° (ENE) 03:04:06 437.505
AO-7 24 Jan 02:57:59 03:04:26 24° 88° (E) 03:10:50 29.400- 29.500
CUSAT 1 24 Jan 02:58:29 03:04:14 54° 92° (E) 03:11:22 437.405
BUGSAT 1 24 Jan 03:07:36 03:09:23 13° 306° (NW) 03:11:11 437.445
Gurwin Techsat 1B 24 Jan 03:14:03 03:19:23 71° 290° (WNW) 03:24:41 435.225
ITAMSAT 1 24 Jan 03:21:08 03:25:56 36° 96° (E) 03:30:44 435.822/435.867
JAS-2 24 Jan 03:21:43 03:23:08 11° 326° (NW) 03:24:34 435.910
MOZHAYETS 4 24 Jan 03:22:18 03:26:52 69° 257° (WSW) 03:31:30
ITUPSAT 1 24 Jan 03:29:32 03:33:24 24° 268° (W) 03:37:18 437.325
AUBIESAT-1 24 Jan 03:29:39 03:33:45 87° 62° (ENE) 03:37:34 437.475
ISS 24 Jan 03:32:20 03:34:46 20° 214° (SSW) 03:37:12 145.825
KKS-1 24 Jan 03:34:34 03:38:58 62° 70° (ENE) 03:43:22 437.445
RS-15 24 Jan 03:40:21 03:52:11 49° 351° (N) 04:04:05 29.354- 29.394
PCSat 24 Jan 03:46:17 03:50:31 22° 340° (NNW) 03:54:45 145.827
YUBILEINY 24 Jan 03:48:50 03:54:35 20° 288° (WNW) 04:00:20 435.215
BEESAT 24 Jan 04:03:46 04:05:57 13° 275° (W) 04:08:08 436.000
SWISSCUBE 24 Jan 04:06:40 04:08:07 11° 276° (W) 04:09:34 437.505
Oscar 19 24 Jan 04:10:20 04:13:53 19° 307° (NW) 04:17:25 437.125/150
STARS 24 Jan 04:17:06 04:21:28 77° 72° (ENE) 04:25:52 437.465
CUBESAT XI-V 24 Jan 04:18:03 04:22:46 77° 72° (ENE) 04:27:31 437.345
AIST 2 24 Jan 04:26:56 04:30:16 23° 243° (WSW) 04:33:35 435.215
DANDE 24 Jan 04:27:03 04:31:38 79° 101° (E) 04:37:55 436.750
M-CUBED/EXP-1 PRIME 24 Jan 04:31:51 04:35:02 21° 260° (W) 04:38:04 437.505
Cosmos 2504 24 Jan 04:36:42 04:39:53 13° 291° (WNW) 04:43:02 435.465 / 435.565
CUSAT 1 24 Jan 04:40:43 04:46:29 40° 298° (WNW) 04:53:28 437.405
GONETS M04 24 Jan 04:41:36 04:48:06 22° 48° (NE) 04:54:34
Cosmos 2491 24 Jan 04:47:32 04:54:34 26° 307° (NW) 05:01:41 435.465 / 435.565
Cosmos 2499 24 Jan 04:49:48 04:55:09 21° 53° (NE) 05:00:23 435.465 / 435.565
AO-7 24 Jan 04:50:00 04:58:27 85° 110° (ESE) 05:06:49 29.400- 29.500
Gurwin Techsat 1B 24 Jan 04:55:19 04:58:29 16° 310° (NW) 05:01:38 435.225
ITAMSAT 1 24 Jan 05:00:36 05:05:29 42° 296° (WNW) 05:10:24 435.822/435.867
MOZHAYETS 4 24 Jan 05:04:08 05:04:56 10° 277° (W) 05:05:45
GOMX 1 24 Jan 05:05:07 05:07:32 14° 86° (E) 05:09:54 467.674
AUBIESAT-1 24 Jan 05:06:57 05:08:36 12° 265° (W) 05:10:13 437.475
KKS-1 24 Jan 05:12:43 05:15:56 19° 270° (W) 05:19:09 437.445
BRITE-PL 24 Jan 05:19:43 05:24:28 46° 97° (E) 05:28:49 437.365/2234.400
PCSat 24 Jan 05:32:08 05:35:52 18° 6° (N) 05:39:35 145.827
NOAA 15 24 Jan 05:39:21 05:42:36 16° 87° (E) 05:45:50 137.62
Cubesat XI-IV 24 Jan 05:44:10 05:47:37 17° 87° (E) 05:51:03 437.490
RS-15 24 Jan 05:55:23 06:07:35 56° 24° (NNE) 06:19:34 29.354- 29.394
STARS 24 Jan 05:55:47 05:58:23 15° 272° (W) 06:00:59 437.465
CUBESAT XI-V 24 Jan 05:57:38 06:00:43 17° 272° (W) 06:03:49 437.345
STRAND 1 24 Jan 05:59:24 06:04:03 37° 62° (ENE) 06:08:44 437.568
HORYU 2 24 Jan 06:05:19 06:09:42 53° 101° (E) 06:14:04 437.375
DANDE 24 Jan 06:11:29 06:15:27 22° 309° (NW) 06:20:19 436.750
O/OREOS (USA 219) 24 Jan 06:17:16 06:21:37 53° 113° (ESE) 06:25:59 437.305
NOAA 18 24 Jan 06:19:55 06:23:44 19° 89° (E) 06:27:31 137.9125
LilacSat-2 24 Jan 06:23:56 06:27:31 34° 96° (E) 06:31:05 437.200
CUSAT 1 24 Jan 06:27:46 06:30:55 13° 324° (NW) 06:34:17 437.405
GONETS M04 24 Jan 06:38:01 06:46:53 69° 75° (ENE) 06:55:42
CUTE-I 24 Jan 06:38:36 06:43:43 44° 98° (E) 06:48:49 437.470
GOMX 1 24 Jan 06:41:51 06:46:20 77° 286° (WNW) 06:50:33 467.674
Cosmos 2499 24 Jan 06:42:21 06:49:35 83° 80° (E) 06:56:39 435.465 / 435.565
ITAMSAT 1 24 Jan 06:43:08 06:43:43 10° 317° (NW) 06:44:19 435.822/435.867
AO-7 24 Jan 06:43:18 06:50:30 34° 313° (NW) 06:57:39 29.400- 29.500
BRITE-PL 24 Jan 06:58:31 07:02:46 29° 299° (WNW) 07:06:43 437.365/2234.400
DOVE 4 24 Jan 07:00:45 07:04:57 70° 102° (ESE) 07:09:05 437.250
CANX-2 24 Jan 07:07:07 07:09:54 17° 88° (E) 07:12:40 2200.000
SEEDS 24 Jan 07:11:09 07:12:16 11° 84° (E) 07:13:21 437.485
PCSat 24 Jan 07:16:04 07:20:56 32° 32° (NNE) 07:25:47 145.827
SO-50 24 Jan 07:17:39 07:21:41 29° 119° (ESE) 07:25:40 436.795
NOAA 15 24 Jan 07:17:48 07:23:11 87° 108° (ESE) 07:28:30 137.62
Cubesat XI-IV 24 Jan 07:23:04 07:28:27 89° 292° (WNW) 07:33:48 437.490
STRAND 1 24 Jan 07:38:25 07:43:13 41° 262° (W) 07:48:03 437.568
HORYU 2 24 Jan 07:42:23 07:45:59 25° 300° (WNW) 07:49:35 437.375
PRISM 24 Jan 07:46:30 07:49:47 23° 60° (ENE) 07:53:05 437.425
UNISAT 6 24 Jan 07:50:17 07:51:08 10° 50° (NE) 07:51:59 437.425
O/OREOS (USA 219) 24 Jan 07:57:26 08:01:18 28° 314° (NW) 08:05:11 437.305
LilacSat-2 24 Jan 07:58:24 08:01:44 27° 295° (WNW) 08:05:03 437.200
HO-68 24 Jan 07:58:36 08:05:29 46° 98° (E) 08:12:19 435.675
NOAA 18 24 Jan 07:59:36 08:05:05 83° 290° (WNW) 08:10:34 137.9125
CINEMA 3 24 Jan 08:00:16 08:04:28 70° 103° (ESE) 08:08:46 145.822/145.860
TIGRISAT 24 Jan 08:01:22 08:03:06 12° 52° (NE) 08:04:49 435.000
RS-15 24 Jan 08:08:43 08:21:07 78° 233° (SW) 08:33:06 29.354- 29.394
CUTE 1.7 + AOD 2 24 Jan 08:11:47 08:16:02 55° 100° (E) 08:20:15 437.475
ANTELSAT 24 Jan 08:16:26 08:19:10 17° 56° (ENE) 08:21:55 437.575/2403.000
CUTE-I 24 Jan 08:18:51 08:23:43 37° 298° (WNW) 08:28:35 437.470
GOMX 1 24 Jan 08:21:32 08:23:38 13° 308° (NW) 08:25:42 467.674
JAS-2 24 Jan 08:25:26 08:28:55 16° 43° (NE) 08:32:38 435.910
CUBEBUG 2 24 Jan 08:27:58 08:32:03 38° 97° (E) 08:36:13 437.445
FUNcube-1 24 Jan 08:32:33 08:35:37 18° 89° (E) 08:38:42 145.935
GONETS M04 24 Jan 08:35:27 08:43:10 36° 278° (W) 08:50:52
Cosmos 2499 24 Jan 08:36:32 08:41:49 23° 282° (WNW) 08:47:02 435.465 / 435.565
AO-7 24 Jan 08:36:44 08:40:51 15° 339° (NNW) 08:44:58 29.400- 29.500
DOVE 4 24 Jan 08:39:27 08:42:12 17° 303° (WNW) 08:44:56 437.250
CANX-2 24 Jan 08:41:56 08:46:14 69° 288° (WNW) 08:50:31 2200.000
COMPASS 1 24 Jan 08:42:02 08:46:11 52° 100° (E) 08:50:17 437.405
SEEDS 24 Jan 08:44:24 08:48:42 79° 103° (ESE) 08:52:57 437.485
UWE-3 24 Jan 08:47:49 08:51:57 39° 97° (E) 08:56:10 435.000/436.395/437.385
AAUSAT CUBESAT 2 24 Jan 08:49:09 08:53:14 48° 99° (E) 08:57:17 437.432
SO-50 24 Jan 08:57:16 09:01:55 60° 319° (NW) 09:06:30 436.795
ZACube-1 24 Jan 08:57:28 09:01:25 31° 95° (E) 09:05:26 437.345
NOAA 15 24 Jan 08:58:30 09:02:21 21° 307° (NW) 09:06:11 137.62
PCSat 24 Jan 08:59:25 09:04:53 78° 233° (SW) 09:10:18 145.827
Cubesat XI-IV 24 Jan 09:04:07 09:07:53 20° 307° (NW) 09:11:38 437.490
PRISM 24 Jan 09:20:45 09:24:49 50° 259° (W) 09:28:54 437.425
UNISAT 6 24 Jan 09:22:48 09:26:59 59° 71° (ENE) 09:31:13 437.425
Oscar 11 24 Jan 09:26:10 09:30:25 48° 99° (E) 09:34:39 145.826/435.025
DELFI C3 24 Jan 09:30:55 09:33:58 20° 91° (E) 09:36:58 145.870
TIGRISAT 24 Jan 09:34:49 09:39:02 72° 73° (ENE) 09:43:19 435.000
CINEMA 3 24 Jan 09:38:24 09:41:12 18° 302° (WNW) 09:44:03 145.822/145.860
NOAA 18 24 Jan 09:41:17 09:45:02 19° 309° (NW) 09:48:48 137.9125
HO-68 24 Jan 09:46:27 09:53:19 50° 300° (WNW) 10:00:08 435.675
CUTE 1.7 + AOD 2 24 Jan 09:48:14 09:51:34 22° 300° (WNW) 09:54:53 437.475
ANTELSAT 24 Jan 09:51:07 09:55:22 77° 256° (WSW) 09:59:42 437.575/2403.000
QB50P1 24 Jan 10:01:06 10:04:11 20° 59° (ENE) 10:07:18 145.935-145.965
CUBEBUG 2 24 Jan 10:04:47 10:08:37 31° 295° (WNW) 10:12:32 437.445
POLYITAN 1 24 Jan 10:06:23 10:09:39 22° 60° (ENE) 10:12:57 437.675
JAS-2 24 Jan 10:07:10 10:12:41 61° 67° (ENE) 10:18:56 435.910
QB50P2 24 Jan 10:07:38 10:11:02 24° 61° (ENE) 10:14:26 145.880/145.840
FUNcube-1 24 Jan 10:07:55 10:12:17 66° 288° (WNW) 10:16:43 145.935
HUMSAT D 24 Jan 10:08:10 10:11:56 29° 94° (E) 10:15:43 437.325/437.525
COMPASS 1 24 Jan 10:18:09 10:21:26 22° 299° (WNW) 10:24:43 437.405
CANX-2 24 Jan 10:19:38 10:21:19 12° 307° (NW) 10:23:01 2200.000
SEEDS 24 Jan 10:21:11 10:23:52 17° 303° (WNW) 10:26:33 437.485
RS-15 24 Jan 10:22:11 10:31:42 28° 259° (W) 10:41:00 29.354- 29.394
UWE-3 24 Jan 10:24:30 10:28:20 31° 296° (WNW) 10:32:14 435.000/436.395/437.385
AAUSAT CUBESAT 2 24 Jan 10:25:07 10:28:28 23° 299° (WNW) 10:31:47 437.432
AO-7 24 Jan 10:27:36 10:30:13 12° 7° (N) 10:32:50 29.400- 29.500
POPSAT HIP 1 24 Jan 10:27:38 10:31:22 32° 65° (ENE) 10:35:08 437.405
DUCHIFAT 1 24 Jan 10:33:12 10:36:54 32° 65° (ENE) 10:40:39 145.980
ZACube-1 24 Jan 10:33:43 10:37:45 37° 294° (WNW) 10:41:53 437.345
SO-50 24 Jan 10:39:29 10:43:13 23° 342° (NNW) 10:46:55 436.795
Oscar 19 24 Jan 10:39:57 10:40:42 10° 44° (NE) 10:41:27 437.125/150
NANOSAT C BR1 24 Jan 10:40:43 10:44:38 40° 67° (ENE) 10:48:34 145.865
PCSat 24 Jan 10:44:11 10:47:27 16° 255° (WSW) 10:50:42 145.827
BUGSAT 1 24 Jan 10:51:41 10:54:42 21° 60° (ENE) 10:57:44 437.445
Cosmos 2491 24 Jan 10:53:59 11:00:25 22° 48° (NE) 11:06:51 435.465 / 435.565
UNISAT 6 24 Jan 11:01:05 11:04:07 19° 270° (W) 11:07:10 437.425
Oscar 11 24 Jan 11:02:45 11:06:20 25° 298° (WNW) 11:09:55 145.826/435.025
CUBEBUG 1 24 Jan 11:03:11 11:03:26 10° 84° (E) 11:03:42 437.445
DELFI C3 24 Jan 11:05:09 11:09:02 48° 290° (WNW) 11:12:51 145.870
BY70-1 24 Jan 11:07:06 11:09:48 24° 94° (E) 11:12:21 436.1900
TIGRISAT 24 Jan 11:13:41 11:16:16 16° 272° (W) 11:18:51 435.000
Gurwin Techsat 1B 24 Jan 11:25:05 11:27:42 14° 47° (NE) 11:30:20 435.225
AISAT 24 Jan 11:29:10 11:31:06 13° 86° (E) 11:33:00 437.250
ANTELSAT 24 Jan 11:32:06 11:32:53 10° 276° (W) 11:33:41 437.575/2403.000
DANDE 24 Jan 11:34:22 11:35:29 10° 34° (NE) 11:36:38 436.750
HO-68 24 Jan 11:35:23 11:39:30 16° 323° (NW) 11:43:37 435.675
QB50P1 24 Jan 11:35:29 11:39:37 59° 258° (WSW) 11:43:47 145.935-145.965
POLYITAN 1 24 Jan 11:41:05 11:45:11 51° 260° (W) 11:49:18 437.675
QB50P2 24 Jan 11:42:33 11:46:36 47° 261° (W) 11:50:42 145.880/145.840
CUSAT 1 24 Jan 11:43:15 11:49:04 21° 48° (NE) 11:54:45 437.405
HUMSAT D 24 Jan 11:43:39 11:47:38 38° 294° (WNW) 11:51:38 437.325/437.525
FUNcube-1 24 Jan 11:46:05 11:47:45 12° 307° (NW) 11:49:26 145.935
JAS-2 24 Jan 11:53:36 11:58:21 28° 271° (W) 12:03:36 435.910
SPROUT 24 Jan 11:58:49 12:01:43 18° 90° (E) 12:04:35 437.525
VELOX 1 24 Jan 12:01:06 12:04:39 23° 92° (E) 12:08:09 145.980
POPSAT HIP 1 24 Jan 12:03:21 12:07:08 33° 264° (W) 12:10:58 437.405
ESTCUBE 1 24 Jan 12:07:30 12:12:02 63° 101° (ESE) 12:16:31 437.505/2401.250
DUCHIFAT 1 24 Jan 12:08:48 12:12:35 33° 264° (W) 12:16:23 145.980
UKube-1 24 Jan 12:11:32 12:12:56 11° 86° (E) 12:14:20 .
Oscar 19 24 Jan 12:13:54 12:18:48 43° 65° (ENE) 12:23:43 437.125/150
AO-7 24 Jan 12:14:07 12:19:56 21° 34° (NE) 12:25:44 29.400- 29.500
NANOSAT C BR1 24 Jan 12:16:57 12:20:30 26° 266° (W) 12:24:04 145.865
DX 1 24 Jan 12:19:36 12:22:37 18° 90° (E) 12:25:35 434.975-435.025
SO-50 24 Jan 12:21:50 12:25:09 19° 6° (N) 12:28:27 436.795
BUGSAT 1 24 Jan 12:25:51 12:29:47 52° 259° (W) 12:33:45 437.445
CUBEBUG 1 24 Jan 12:36:11 12:40:33 73° 103° (ESE) 12:44:51 437.445
BY70-1 24 Jan 12:37:12 12:40:00 27° 295° (WNW) 12:42:41 436.1900
Cosmos 2491 24 Jan 12:50:24 12:59:13 69° 75° (ENE) 13:08:00 435.465 / 435.565
AO-85 24 Jan 13:01:17 13:04:51 22° 118° (ESE) 13:08:15 145.980
Gurwin Techsat 1B 24 Jan 13:01:27 13:06:39 59° 68° (ENE) 13:11:54 435.225
YUBILEINY 24 Jan 13:03:41 13:10:56 30° 79° (E) 13:18:13 435.215
O/OREOS (USA 219) 24 Jan 13:03:48 13:05:51 13° 31° (NNE) 13:07:53 437.305
AISAT 24 Jan 13:03:49 13:08:15 87° 110° (ESE) 13:12:38 437.250
ITAMSAT 1 24 Jan 13:07:32 13:11:16 21° 54° (NE) 13:15:01 435.822/435.867
TISAT 1 24 Jan 13:11:59 13:14:32 16° 89° (E) 13:17:03 437.305
50 SAT 24 Jan 13:13:22 13:16:57 89° 305° (NW) 13:20:30 437.505
DANDE 24 Jan 13:14:12 13:20:52 31° 58° (ENE) 13:28:03 436.750
CUSAT 1 24 Jan 13:24:42 13:32:41 64° 71° (ENE) 13:40:05 437.405
SPROUT 24 Jan 13:33:50 13:38:04 64° 289° (WNW) 13:42:17 437.525
Cosmos 2504 24 Jan 13:34:12 13:40:35 25° 79° (ENE) 13:46:39 435.465 / 435.565
VELOX 1 24 Jan 13:37:06 13:41:23 50° 292° (WNW) 13:45:37 145.980
ESTCUBE 1 24 Jan 13:45:00 13:48:28 22° 302° (WNW) 13:51:54 437.505/2401.250
UKube-1 24 Jan 13:45:22 13:49:43 81° 107° (ESE) 13:54:01 .
Oscar 19 24 Jan 13:53:29 13:58:13 35° 264° (W) 14:03:01 437.125/150
DX 1 24 Jan 13:54:55 13:59:14 64° 289° (WNW) 14:03:30 434.975-435.025
